SCP
0 0 0 0 0 0 0 0 0 0 0 0 0 0 0 0 0 0 0 0 0 0 0 0 0 0 0 0 0 0 0 0 0 -0 0 0 0 0 0 0 0 0 0 0 0 0 0 0 0 0 0 -0 -0 -0
0 0 0 0 0 0 0 0 0 0 0 0 0 0 0 0 0 0 0 0 0 0 0 0 -0 -0 0 0 0 0 0 0 0 0 0 0 0 0 0 0 0 0 0 0 0 0 0 0 0 0 0 -0 -0 -0
0 0 0 0 0 0 0 0 0 0 0 0 0 0 0 0 0 0 0 0 0 0 0 0 0 0 0 0 0 0 0 0 0 0 0 0 0 0 0 0 0 0 0 0 0 0 0 0 0 0 0 0 0 -0
0 0 0 0 0 0 0 0 0 0 0 0 0 0 0 0 0 0 0 0 0 0 0 0 0 0 0 0 0 0 0 0 0 0 0 0 0 0 0 0 0 0 0 0 0 0 0 0 0 -0 -0 -0 0 0
0 0 0 0 0 0 0 0 0 0 0 0 0 0 0 0 0 0 0 0 0 0 0 0 -0 0 0 0 0 0 0 0 0 0 0 0 0 0 0 0 0 0 0 0 0 0 0 0 0 -0 0 -0 0 0
0 0 0 0 0 0 0 0 0 0 0 0 0 0 0 0 0 0 0 0 0 0 0 0 0 0 0 0 0 0 0 0 0 0 0 0 0 0 0 0 0 0 0 0 0 0 0 0 0 0 -0 0 0 0
0 0 0 0 0 0 0 0 0 0 0 0 0 0 0 0 0 0 0 0 0 0 0 0 0 0 0 0 0 0 0 0 0 0 0 0 0 0 0 0 0 0 0 0 0 0 0 0 0 0 0 0 0 0
0 0 0 0 0 0 0 0 0 0 0 0 0 0 0 0 0 0 0 0 0 0 0 0 0 0 0 0 0 0 0 0 0 0 0 0 0 0 0 0 0 0 0 0 0 0 0 0 0 0 0 0 0 0
0 0 0 0 0 0 0 0 0 0 0 0 0 0 0 0 0 0 0 0 0 0 0 0 0 0 0 0 0 0 0 0 0 0 0 0 0 0 0 0 0 0 0 0 0 0 0 0 0 0 0 0 0 0
0 0 0 0 0 0 0 0 0 0 0 0 0 0 0 0 0 0 0 0 0 0 0 0 0 0 0 0 0 0 0 0 0 0 0 0 0 0 0 0 0 0 0 -0 -0 -0 0 0 0 0 -0 0 0 0
0 0 0 0 0 0 0 0 0 0 0 0 0 0 0 0 0 0 0 0 0 0 0 0 0 0 0 0 0 0 0 0 0 0 0 -0 0 0 0 0 0 0 0 -0 0 -0 0 -0 0 0 0 0 -0 -0
0 0 0 0 0 0 0 0 0 0 0 0 0 0 0 0 0 0 0 0 0 0 0 0 0 0 0 0 0 0 0 0 0 0 0 0 0 0 0 0 0 0 -0 -0 -0 -0 -0 0 0 0 -0 0 0 -0
0 0 0 0 0 0 0 0 0 0 0 0 0 0 0 0 0 0 0 0 0 0 0 0 0 0 0 0 0 0 0 0 0 0 0 0 0 0 0 0 0 0 -0 0 0 -0 -0 -0 -0 0 0 0 -0 0
0 0 0 0 0 0 0 0 0 0 0 0 0 0 0 0 0 0 0 0 0 0 0 0 0 0 0 0 0 0 0 0 0 0 0 0 0 0 0 0 0 0 0 0 -0 -0 -0 -0 -0 -0 0 -0 0 0
0 0 0 0 0 0 0 0 0 0 0 0 0 0 0 0 0 0 -0 0 0 0 0 0 0 0 0 0 0 0 0 0 0 0 0 0 0 0 0 0 0 0 0 0 -0 -0 -0 -0 -0 -0 -0 0 0 -0
0 0 0 0 0 0 0 0 0 0 0 0 0 1 0 0 0 0 0 0 0 0 0 0 0 0 0 0 0 0 0 0 0 0 0 0 0 0 0 0 0 0 0 0 0 0 0 0 -0 0 0 -0 0 -0
0 0 0 0 0 0 0 0 0 0 0 0 0 0 -0 -0 0 0 0 0 0 0 0 0 0 -0 0 0 0 0 0 0 0 0 0 0 0 0 0 0 0 0 0 0 0 0 0 0 0 0 0 0 0 0
0 0 -0 -0 -0 0 0 0 0 0 0 -0 -0 -0 -0 -0 -0 0 0 0 0 0 0 0 0 0 0 0 0 0 0 0 0 0 0 0 0 0 0 0 0 0 0 0 0 0 0 0 0 0 0 0 0 0
-0 0 -0 -0 0 0 0 -0 0 -0 -0 -0 -0 -0 -0 -0 -0 -0 0 0 0 0 0 0 0 0 0 0 0 0 0 0 0 0 0 0 0 0 0 0 0 0 0 0 0 0 0 0 0 0 0 -0 0 0
-0 -0 -0 -0 0 0 0 -0 0 0 -0 -0 -0 -0 -0 0 0 0 0 0 0 0 0 0 0 0 0 0 0 0 0 0 0 0 0 0 0 0 0 0 0 0 0 0 0 0 0 0 -0 0 -0 0 0 0
0 0 0 0 0 0 0 -0 -0 -0 -0 0 -0 0 0 0 0 0 0 0 0 0 0 0 0 0 0 0 0 0 0 0 0 0 0 0 0 0 0 0 0 0 0 0 0 0 -0 0 0 0 0 0 0 0
0 -0 0 0 0 0 0 0 0 0 0 0 -0 0 0 0 0 0 0 0 0 0 0 0 0 0 0 0 0 0 0 -0 -0 -0 0 0 0 0 0 0 0 0 0 0 -0 -0 -0 0 0 0 0 0 0 0
0 0 0 0 0 0 0 -0 0 0 0 0 0 0 0 0 0 0 0 0 0 0 0 0 0 0 0 0 0 0 -0 -0 -0 -0 -0 -0 -0 0 0 -0 -0 -0 0 -0 0 -0 0 0 0 0 0 0 0 0
0 0 0 0 0 0 0 0 0 0 0 0 0 0 0 0 0 0 0 0 -0 0 0 0 0 0 0 0 0 0 0 0 0 -0 0 -0 0 -0 -0 0 0 0 0 0 0 0 0 0 -0 -0 0 0 0 0
0 0 0 0 0 0 0 0 0 0 0 0 0 0 0 0 0 0 0 0 0 0 0 0 0 0 0 0 0 0 0 0 0 0 -0 0 -0 -0 -0 0 -0 0 0 0 -0 -0 -0 -0 0 -0 0 0 0 0
0 0 0 0 0 0 0 0 0 0 0 0 0 0 0 0 0 0 0 0 0 0 0 0 0 0 0 0 0 0 0 -0 0 0 0 0 0 0 0 0 -0 -0 -0 0 0 -0 -0 -0 -0 -0 -0 0 0 0
0 0 0 0 0 0 0 0 0 0 0 0 0 0 0 0 0 0 0 0 0 -0 -0 0 0 0 0 0 0 0 0 0 0 0 0 0 0 0 0 0 0 0 0 -0 -0 0 -0 -0 0 0 0 0 0 0
0 0 0 0 0 0 0 0 0 0 0 0 0 0 0 0 0 0 0 0 0 0 0 0 0 0 0 0 0 0 0 0 0 0 0 0 0 0 0 0 0 -0 -0 0 -0 -0 -0 0 0 0 0 0 0 0
0 0 0 0 0 0 0 0 0 0 0 0 0 0 0 0 0 0 0 0 0 0 0 0 0 0 0 0 0 0 -0 0 0 0 0 0 0 0 -0 0 -0 -0 -0 -0 -0 0 0 0 0 0 0 0 0 0
0 0 0 0 0 0 0 0 0 0 0 0 0 0 0 0 0 0 0 0 0 0 0 0 -0 0 0 0 0 0 0 0 0 -0 -0 0 0 0 0 0 0 0 -0 0 0 0 0 0 0 0 0 0 0 0
0 0 0 0 0 0 0 0 0 0 0 0 0 0 0 0 0 0 0 0 0 0 0 -0 -0 0 0 0 0 0 0 0 0 0 0 0 0 0 0 0 0 0 0 0 0 0 0 0 0 0 0 0 0 0
0 0 0 0 0 -0 0 0 0 0 0 0 0 0 0 0 0 0 0 0 0 0 -0 -0 0 0 0 0 0 0 0 0 0 0 0 0 0 0 0 0 0 0 0 0 0 0 0 0 0 0 0 0 0 0
0 0 0 0 0 0 0 0 0 0 0 0 0 0 0 0 0 0 0 0 0 0 0 0 0 0 0 0 0 0 0 0 0 0 0 0 0 0 0 0 0 0 0 0 0 0 0 0 0 0 0 0 0 0
Wind_Speed_500mb
45 45 45 45 47 48 50 49 48 46 45 43 42 43 38 41 33 30 14 17 19 26 68 45 28 35 38 34 7 31 19 12 9 10 6 9 8 10 11 26 6 7 11 9 12 9 10 59 28 17 23 66 65 72
40 41 41 41 42 44 46 47 45 46 45 41 40 38 37 33 35 29 21 9 24 26 48 69 67 49 51 51 36 14 6 4 4 4 5 6 7 10 19 8 7 6 3 7 5 10 37 43 38 57 57 52 50 75
36 37 39 38 38 42 44 44 44 42 43 42 40 39 38 35 35 31 20 13 21 46 64 36 28 22 21 28 26 20 10 8 7 11 5 5 10 7 7 9 6 4 5 6 10 2 24 41 53 49 45 44 52 56
38 38 40 42 42 43 44 44 44 40 41 42 42 40 37 33 31 30 26 11 14 16 16 14 14 19 15 22 27 30 22 11 11 11 11 6 7 7 6 13 2 4 14 11 12 14 34 26 44 54 49 42 50 54
40 41 41 42 42 43 44 44 43 41 41 41 43 37 33 30 29 26 22 21 17 21 14 40 64 18 28 45 32 34 33 28 14 5 8 6 9 8 11 7 3 5 7 7 7 33 20 26 43 49 47 49 49 55
40 43 45 44 44 43 43 42 42 41 41 40 40 33 26 27 24 15 9 4 11 22 10 10 25 36 26 21 33 37 39 31 21 10 11 10 13 6 6 6 8 13 19 15 12 22 31 34 43 41 46 44 50 58
43 45 46 46 45 45 42 41 41 39 40 40 35 27 24 25 26 14 10 8 25 21 7 15 14 12 16 31 34 36 32 23 22 11 14 12 14 15 3 5 7 17 17 18 21 24 16 47 37 49 50 53 56 66
51 50 48 49 47 46 42 40 39 36 37 37 26 24 24 20 21 35 30 19 21 15 11 8 11 18 31 28 33 25 18 22 16 13 14 10 13 8 5 12 3 12 8 18 17 22 17 22 39 48 53 60 64 69
53 51 48 47 46 44 42 39 36 32 34 26 20 24 21 20 17 20 12 23 28 20 9 13 7 10 15 31 23 20 18 10 11 8 8 6 5 6 4 11 9 7 10 5 6 10 15 16 32 46 50 60 62 63
52 49 44 42 40 39 39 36 30 25 22 17 24 13 10 10 18 17 17 19 24 17 19 17 35 22 19 20 10 9 7 6 5 8 3 6 4 10 5 6 7 4 4 3 1 20 24 30 36 37 42 53 59 61
49 45 43 42 41 40 38 32 19 7 16 19 8 11 18 12 15 12 15 20 19 12 19 21 44 32 25 14 13 8 4 6 6 5 5 6 7 8 10 10 7 7 15 16 9 6 19 26 33 39 41 40 54 54
47 46 44 46 46 41 37 29 16 27 20 15 17 22 13 14 20 12 9 12 16 12 24 19 24 30 17 24 9 6 6 5 9 5 6 4 9 15 16 13 11 10 21 16 2 14 23 25 29 34 39 40 42 52
52 50 51 50 47 40 38 32 23 22 31 39 11 10 13 18 17 13 17 11 11 15 19 20 16 20 20 16 6 7 8 9 7 5 6 6 20 20 21 18 14 16 16 9 12 21 25 28 29 32 35 39 40 39
57 55 55 51 48 45 40 35 25 37 23 15 17 12 12 14 15 17 23 28 31 28 22 27 26 22 12 9 9 9 10 6 8 8 4 12 26 25 24 21 20 18 9 16 22 22 26 29 31 31 32 33 36 41
60 59 57 57 52 47 44 38 31 40 23 20 18 13 21 36 42 38 38 51 37 37 23 32 24 21 13 8 10 10 7 10 8 5 6 33 32 29 31 25 30 10 18 24 25 24 25 27 29 32 31 32 34 36
54 57 61 56 52 50 48 44 45 54 20 23 20 17 43 37 41 56 48 25 35 33 33 27 8 7 12 10 11 11 10 4 5 8 32 34 33 32 33 26 35 14 19 23 25 25 26 26 29 31 33 34 35 36
54 66 54 52 45 38 47 51 42 28 18 14 26 58 63 49 35 57 27 32 26 58 16 9 10 19 8 7 16 4 7 8 29 29 26 26 31 36 28 30 30 16 27 26 25 25 27 29 30 31 33 32 33 34
61 60 59 55 56 55 58 70 33 21 20 35 38 52 55 41 34 31 30 45 30 33 28 10 9 8 7 11 7 4 22 30 28 32 31 31 32 29 18 23 23 22 26 28 27 25 26 28 30 31 31 31 31 31
61 57 62 46 33 17 10 22 25 13 34 43 55 55 39 43 45 32 37 32 40 7 4 12 9 9 9 11 5 18 26 28 34 33 36 32 28 28 27 26 21 24 27 28 28 25 23 25 25 27 27 28 28 27
30 29 42 40 26 8 10 12 36 11 10 32 35 47 43 35 40 38 40 39 26 19 9 5 11 12 5 5 11 19 31 40 38 38 36 36 29 30 28 27 25 26 24 24 20 25 23 26 24 23 24 25 27 28
28 34 40 34 12 5 7 10 19 21 11 16 40 38 31 33 39 36 13 17 16 17 15 20 3 10 9 10 13 23 30 30 25 33 36 39 32 29 27 23 27 25 25 23 22 20 22 23 24 24 24 23 22 23
28 38 21 25 4 6 10 14 11 9 9 8 22 24 18 30 39 28 25 24 21 28 21 7 12 6 4 9 13 23 35 34 25 30 32 34 31 25 23 21 21 21 23 26 25 24 22 22 22 22 24 22 25 21
33 34 10 8 7 8 8 11 10 9 7 8 23 13 8 21 27 36 13 23 25 24 24 17 6 12 19 21 16 25 28 29 26 26 31 33 33 36 35 30 28 25 22 20 21 23 21 23 25 23 23 25 25 26
34 6 5 6 9 8 5 6 8 9 8 8 10 7 11 8 23 16 11 18 30 29 23 15 16 20 23 19 26 24 29 26 25 24 23 22 29 32 30 25 29 27 18 24 24 23 24 23 27 25 24 25 26 20
7 9 8 9 8 8 9 7 10 9 10 16 18 10 10 19 9 11 12 19 27 20 24 21 26 25 23 16 15 15 21 24 28 28 26 24 29 26 27 19 20 39 32 27 25 23 23 23 24 24 24 24 24 23
11 13 14 12 9 11 8 8 12 13 14 11 5 4 1 6 10 6 12 24 24 26 27 27 24 27 25 22 20 18 17 29 29 32 27 26 23 25 25 21 24 25 25 29 27 26 23 22 22 23 23 21 23 20
7 10 16 17 15 21 11 18 20 11 13 8 8 9 8 7 5 5 9 11 24 30 30 28 31 28 29 27 28 23 21 21 24 25 23 21 20 23 20 16 20 19 17 21 26 21 26 24 23 24 22 20 19 22
8 7 7 16 15 14 9 7 6 1 6 5 7 5 3 8 6 6 8 14 17 34 30 32 31 34 37 31 30 27 25 23 24 26 25 20 20 17 16 17 18 19 16 19 14 11 24 28 23 22 21 20 27 24
9 11 8 8 12 12 11 3 2 7 15 8 1 4 5 7 5 7 12 25 27 41 37 38 35 34 33 29 26 22 25 27 28 28 25 26 23 21 17 18 18 17 16 15 14 18 18 18 18 13 11 10 11 13
17 20 6 8 9 1 8 9 16 16 18 16 12 15 11 9 9 9 23 33 34 37 44 38 37 30 33 32 28 25 21 21 19 22 25 30 24 21 15 16 11 16 17 16 12 9 10 9 6 4 5 4 13 17
17 12 6 6 5 9 16 19 17 15 13 14 15 16 12 9 16 28 35 36 36 39 38 30 26 27 34 34 29 26 22 15 17 20 25 29 23 18 19 13 10 9 9 8 4 7 7 7 8 9 11 14 14 14
10 12 7 5 6 14 15 11 12 8 10 8 8 9 14 14 11 17 48 42 25 21 30 31 30 29 28 29 29 23 23 21 20 21 20 18 17 11 8 5 4 3 3 4 3 5 11 14 12 13 13 14 16 17
12 14 14 6 4 5 9 8 8 7 9 6 9 13 14 5 8 15 18 25 27 29 30 31 30 30 31 28 27 26 23 17 19 16 14 13 13 18 13 7 9 4 1 3 2 2 5 5 5 4 3 8 19 19
Wind_Direction_500mb
303 306 308 309 311 311 312 313 312 310 307 299 296 300 304 305 294 290 275 243 266 285 289 285 292 292 291 282 293 326 345 20 346 360 330 350 303 313 307 319 331 315 327 337 314 290 334 359 334 338 296 297 296 293
302 305 307 310 313 313 313 314 313 315 310 311 303 297 298 309 289 285 298 202 258 267 271 287 286 272 258 258 276 292 291 278 277 306 334 315 289 305 316 305 25 335 81 302 280 295 297 317 302 306 309 307 307 304
297 300 305 311 318 319 317 315 315 313 316 312 316 307 291 284 280 273 273 226 274 290 301 282 278 316 259 241 229 241 210 197 214 218 304 280 272 284 303 328 304 310 107 255 294 236 325 329 328 337 345 341 348 12
291 297 304 308 311 317 320 318 318 315 315 316 311 309 295 289 279 275 273 180 289 299 287 301 311 276 270 237 222 225 240 217 247 266 231 245 257 278 278 283 266 349 306 290 263 294 313 330 357 1 5 17 23 46
291 298 303 308 310 309 315 320 320 317 311 310 314 305 296 278 272 276 268 246 221 252 296 298 303 313 252 222 227 226 223 231 231 235 222 241 245 260 261 277 141 322 295 336 310 325 329 318 10 20 28 34 42 52
293 299 302 306 308 310 314 319 321 320 312 309 319 313 295 264 260 265 320 108 207 218 270 290 306 281 241 218 221 231 215 218 216 212 238 238 243 257 290 300 167 352 347 4 329 339 356 17 29 43 46 48 61 65
294 299 301 304 308 310 312 317 319 319 315 312 324 316 277 260 251 205 219 188 180 211 256 283 276 265 211 208 224 220 212 213 218 234 226 227 223 187 254 266 334 0 6 25 28 356 357 39 48 56 64 64 68 72
291 293 294 298 304 308 310 313 319 319 315 315 322 274 254 248 242 251 237 219 197 229 247 270 280 279 203 214 223 195 196 205 221 234 242 218 158 224 254 257 67 18 67 42 52 17 23 55 57 57 67 65 69 64
286 287 289 292 299 303 304 307 317 315 318 322 273 240 227 235 244 272 202 219 232 224 256 225 250 295 173 237 257 179 192 204 221 243 245 246 172 225 259 339 46 49 56 93 21 356 85 85 77 65 72 72 73 71
285 286 285 288 296 302 306 303 311 317 311 298 243 233 249 240 245 211 165 179 203 218 231 255 238 245 322 309 160 263 197 222 231 242 222 230 208 143 54 59 91 94 129 159 101 45 49 68 95 81 78 80 86 80
280 281 282 285 291 298 302 303 307 306 236 232 241 238 267 270 209 231 223 194 186 231 222 240 233 245 250 251 267 240 262 197 247 187 235 223 161 116 104 118 118 109 111 143 121 349 49 66 76 96 86 95 86 90
275 277 281 286 286 290 290 290 232 217 224 242 258 287 244 206 223 236 214 201 197 240 192 219 219 209 232 232 231 247 247 225 256 151 243 225 127 134 146 142 140 137 133 151 101 87 83 82 83 87 97 99 105 91
274 276 283 285 281 279 277 275 251 222 239 247 241 243 212 216 229 224 203 205 214 208 233 186 192 170 224 213 188 247 228 224 149 232 224 101 137 147 148 149 160 151 153 159 117 99 94 93 94 94 95 98 109 110
273 277 280 280 278 274 269 262 243 224 238 212 201 232 221 209 229 199 231 234 237 252 236 195 195 196 202 192 218 235 222 197 229 218 223 145 153 159 158 159 165 157 172 174 126 116 107 102 101 102 102 104 107 108
274 276 279 275 271 266 261 254 239 224 237 213 212 230 219 239 245 252 237 240 245 246 266 197 181 211 216 234 209 238 225 232 228 119 136 137 149 157 157 147 164 133 142 139 129 121 117 112 109 107 108 111 111 111
277 278 272 272 270 266 261 249 231 216 230 216 222 259 259 243 238 242 246 225 240 253 204 209 205 258 208 202 230 226 257 322 87 111 126 138 147 157 156 153 163 146 148 137 132 129 124 121 119 118 116 115 116 117
277 272 273 276 274 251 245 231 214 201 218 234 214 230 250 268 270 266 233 238 227 230 203 186 213 215 240 241 232 292 309 112 113 126 140 144 155 158 156 155 162 169 155 138 138 133 127 128 128 125 123 122 120 118
270 274 275 270 277 266 248 211 195 200 221 227 233 238 252 260 251 269 238 252 250 199 210 207 282 227 248 269 28 311 98 105 118 133 135 135 135 147 152 154 166 160 143 144 141 137 136 136 133 133 131 132 131 127
271 267 273 269 232 168 156 164 180 226 225 232 234 233 246 264 238 251 261 234 225 178 71 227 230 245 250 9 140 148 124 133 132 138 135 137 143 141 148 151 151 148 148 145 142 141 144 141 142 141 142 143 143 141
253 227 229 217 160 189 182 174 190 249 241 217 223 221 222 243 248 242 238 215 179 206 230 229 253 8 298 159 186 154 136 135 142 142 142 140 142 136 141 149 152 149 145 149 146 145 144 143 144 147 149 146 145 146
171 179 164 173 205 262 215 188 190 219 227 223 205 203 217 227 247 247 194 172 175 219 231 236 333 345 308 122 126 150 149 140 152 163 158 145 144 135 137 146 155 155 157 158 156 159 162 152 152 153 145 147 141 144
175 163 166 174 279 253 247 215 220 213 249 235 196 188 236 212 235 219 217 205 212 223 245 304 258 166 135 104 126 148 157 142 143 154 162 154 151 146 146 154 161 171 173 169 163 164 160 158 157 157 155 149 149 145
135 148 167 209 258 245 269 193 212 203 237 207 191 180 237 178 196 191 194 220 216 222 211 203 123 153 139 140 131 145 149 147 147 151 164 172 173 170 171 177 177 172 168 163 162 161 159 164 163 161 162 158 161 165
142 146 228 232 230 263 237 242 233 247 176 237 183 214 139 154 193 200 199 206 200 205 190 169 166 164 146 164 160 156 155 150 148 152 172 176 173 186 178 179 191 181 163 162 158 159 160 165 169 168 169 170 171 164
186 231 205 246 245 245 216 213 205 194 215 202 194 207 188 170 167 192 219 215 159 192 189 158 192 171 153 145 136 142 142 155 151 150 158 152 164 174 172 176 179 199 184 156 165 170 167 174 168 172 175 177 178 178
217 213 194 209 226 227 237 205 209 218 193 172 173 244 129 147 196 219 182 166 180 176 172 176 154 141 158 150 146 156 136 159 147 147 142 152 149 161 169 172 173 178 185 199 199 192 189 186 179 183 183 182 180 180
248 221 204 224 233 214 244 254 240 212 187 165 146 151 187 206 138 81 98 133 159 171 172 158 149 158 147 146 125 141 137 125 133 148 147 137 118 126 138 178 201 182 190 194 199 201 199 194 196 193 196 190 193 200
268 280 245 229 231 242 265 260 218 283 60 74 115 107 50 12 70 42 131 167 177 140 139 145 147 143 135 135 131 124 130 132 134 126 116 121 119 113 99 109 130 135 155 168 175 178 183 192 198 198 208 218 217 228
254 268 245 243 218 234 217 220 345 65 34 64 134 103 80 53 22 0 150 142 146 141 142 131 135 135 132 129 131 133 136 144 139 143 152 140 141 141 126 104 118 134 122 143 144 136 147 166 177 183 192 194 211 222
195 189 234 244 234 207 43 80 80 64 58 65 94 99 71 65 44 102 141 137 136 136 133 132 143 143 139 136 124 116 119 117 135 147 155 148 133 137 146 127 117 126 141 135 132 129 128 129 156 184 229 217 217 224
149 169 249 259 0 21 104 94 84 66 56 59 62 103 95 92 81 105 127 128 127 123 129 165 156 141 140 140 135 138 128 101 147 104 115 120 116 117 99 126 123 109 124 125 147 182 185 201 224 240 236 230 219 231
201 200 271 331 79 134 115 95 85 63 38 67 51 89 90 83 67 118 137 137 144 148 153 142 136 120 118 121 133 132 133 128 117 117 113 118 109 108 113 141 166 119 151 186 214 232 240 242 253 254 244 271 261 257
170 211 262 273 268 153 152 157 104 77 31 81 51 71 78 86 118 160 171 182 160 135 135 130 128 126 127 130 133 134 154 149 145 146 155 156 157 148 125 120 125 121 3 262 258 254 265 321 317 308 309 278 257 246
Wind_Speed_850mb
45 45 45 45 47 48 50 49 48 46 45 43 42 43 38 41 33 30 14 17 19 26 68 45 28 35 38 34 7 31 19 12 9 10 6 9 8 10 11 26 6 7 11 9 12 9 10 59 28 17 23 66 65 72
40 41 41 41 42 44 46 47 45 46 45 41 40 38 37 33 35 29 21 9 24 26 48 69 67 49 51 51 36 14 6 4 4 4 5 6 7 10 19 8 7 6 3 7 5 10 37 43 38 57 57 52 50 75
36 37 39 38 38 42 44 44 44 42 43 42 40 39 38 35 35 31 20 13 21 46 64 36 28 22 21 28 26 20 10 8 7 11 5 5 10 7 7 9 6 4 5 6 10 2 24 41 53 49 45 44 52 56
38 38 40 42 42 43 44 44 44 40 41 42 42 40 37 33 31 30 26 11 14 16 16 14 14 19 15 22 27 30 22 11 11 11 11 6 7 7 6 13 2 4 14 11 12 14 34 26 44 54 49 42 50 54
40 41 41 42 42 43 44 44 43 41 41 41 43 37 33 30 29 26 22 21 17 21 14 40 64 18 28 45 32 34 33 28 14 5 8 6 9 8 11 7 3 5 7 7 7 33 20 26 43 49 47 49 49 55
40 43 45 44 44 43 43 42 42 41 41 40 40 33 26 27 24 15 9 4 11 22 10 10 25 36 26 21 33 37 39 31 21 10 11 10 13 6 6 6 8 13 19 15 12 22 31 34 43 41 46 44 50 58
43 45 46 46 45 45 42 41 41 39 40 40 35 27 24 25 26 14 10 8 25 21 7 15 14 12 16 31 34 36 32 23 22 11 14 12 14 15 3 5 7 17 17 18 21 24 16 47 37 49 50 53 56 66
51 50 48 49 47 46 42 40 39 36 37 37 26 24 24 20 21 35 30 19 21 15 11 8 11 18 31 28 33 25 18 22 16 13 14 10 13 8 5 12 3 12 8 18 17 22 17 22 39 48 53 60 64 69
53 51 48 47 46 44 42 39 36 32 34 26 20 24 21 20 17 20 12 23 28 20 9 13 7 10 15 31 23 20 18 10 11 8 8 6 5 6 4 11 9 7 10 5 6 10 15 16 32 46 50 60 62 63
52 49 44 42 40 39 39 36 30 25 22 17 24 13 10 10 18 17 17 19 24 17 19 17 35 22 19 20 10 9 7 6 5 8 3 6 4 10 5 6 7 4 4 3 1 20 24 30 36 37 42 53 59 61
49 45 43 42 41 40 38 32 19 7 16 19 8 11 18 12 15 12 15 20 19 12 19 21 44 32 25 14 13 8 4 6 6 5 5 6 7 8 10 10 7 7 15 16 9 6 19 26 33 39 41 40 54 54
47 46 44 46 46 41 37 29 16 27 20 15 17 22 13 14 20 12 9 12 16 12 24 19 24 30 17 24 9 6 6 5 9 5 6 4 9 15 16 13 11 10 21 16 2 14 23 25 29 34 39 40 42 52
52 50 51 50 47 40 38 32 23 22 31 39 11 10 13 18 17 13 17 11 11 15 19 20 16 20 20 16 6 7 8 9 7 5 6 6 20 20 21 18 14 16 16 9 12 21 25 28 29 32 35 39 40 39
57 55 55 51 48 45 40 35 25 37 23 15 17 12 12 14 15 17 23 28 31 28 22 27 26 22 12 9 9 9 10 6 8 8 4 12 26 25 24 21 20 18 9 16 22 22 26 29 31 31 32 33 36 41
60 59 57 57 52 47 44 38 31 40 23 20 18 13 21 36 42 38 38 51 37 37 23 32 24 21 13 8 10 10 7 10 8 5 6 33 32 29 31 25 30 10 18 24 25 24 25 27 29 32 31 32 34 36
54 57 61 56 52 50 48 44 45 54 20 23 20 17 43 37 41 56 48 25 35 33 33 27 8 7 12 10 11 11 10 4 5 8 32 34 33 32 33 26 35 14 19 23 25 25 26 26 29 31 33 34 35 36
54 66 54 52 45 38 47 51 42 28 18 14 26 58 63 49 35 57 27 32 26 58 16 9 10 19 8 7 16 4 7 8 29 29 26 26 31 36 28 30 30 16 27 26 25 25 27 29 30 31 33 32 33 34
61 60 59 55 56 55 58 70 33 21 20 35 38 52 55 41 34 31 30 45 30 33 28 10 9 8 7 11 7 4 22 30 28 32 31 31 32 29 18 23 23 22 26 28 27 25 26 28 30 31 31 31 31 31
61 57 62 46 33 17 10 22 25 13 34 43 55 55 39 43 45 32 37 32 40 7 4 12 9 9 9 11 5 18 26 28 34 33 36 32 28 28 27 26 21 24 27 28 28 25 23 25 25 27 27 28 28 27
30 29 42 40 26 8 10 12 36 11 10 32 35 47 43 35 40 38 40 39 26 19 9 5 11 12 5 5 11 19 31 40 38 38 36 36 29 30 28 27 25 26 24 24 20 25 23 26 24 23 24 25 27 28
28 34 40 34 12 5 7 10 19 21 11 16 40 38 31 33 39 36 13 17 16 17 15 20 3 10 9 10 13 23 30 30 25 33 36 39 32 29 27 23 27 25 25 23 22 20 22 23 24 24 24 23 22 23
28 38 21 25 4 6 10 14 11 9 9 8 22 24 18 30 39 28 25 24 21 28 21 7 12 6 4 9 13 23 35 34 25 30 32 34 31 25 23 21 21 21 23 26 25 24 22 22 22 22 24 22 25 21
33 34 10 8 7 8 8 11 10 9 7 8 23 13 8 21 27 36 13 23 25 24 24 17 6 12 19 21 16 25 28 29 26 26 31 33 33 36 35 30 28 25 22 20 21 23 21 23 25 23 23 25 25 26
34 6 5 6 9 8 5 6 8 9 8 8 10 7 11 8 23 16 11 18 30 29 23 15 16 20 23 19 26 24 29 26 25 24 23 22 29 32 30 25 29 27 18 24 24 23 24 23 27 25 24 25 26 20
7 9 8 9 8 8 9 7 10 9 10 16 18 10 10 19 9 11 12 19 27 20 24 21 26 25 23 16 15 15 21 24 28 28 26 24 29 26 27 19 20 39 32 27 25 23 23 23 24 24 24 24 24 23
11 13 14 12 9 11 8 8 12 13 14 11 5 4 1 6 10 6 12 24 24 26 27 27 24 27 25 22 20 18 17 29 29 32 27 26 23 25 25 21 24 25 25 29 27 26 23 22 22 23 23 21 23 20
7 10 16 17 15 21 11 18 20 11 13 8 8 9 8 7 5 5 9 11 24 30 30 28 31 28 29 27 28 23 21 21 24 25 23 21 20 23 20 16 20 19 17 21 26 21 26 24 23 24 22 20 19 22
8 7 7 16 15 14 9 7 6 1 6 5 7 5 3 8 6 6 8 14 17 34 30 32 31 34 37 31 30 27 25 23 24 26 25 20 20 17 16 17 18 19 16 19 14 11 24 28 23 22 21 20 27 24
9 11 8 8 12 12 11 3 2 7 15 8 1 4 5 7 5 7 12 25 27 41 37 38 35 34 33 29 26 22 25 27 28 28 25 26 23 21 17 18 18 17 16 15 14 18 18 18 18 13 11 10 11 13
17 20 6 8 9 1 8 9 16 16 18 16 12 15 11 9 9 9 23 33 34 37 44 38 37 30 33 32 28 25 21 21 19 22 25 30 24 21 15 16 11 16 17 16 12 9 10 9 6 4 5 4 13 17
17 12 6 6 5 9 16 19 17 15 13 14 15 16 12 9 16 28 35 36 36 39 38 30 26 27 34 34 29 26 22 15 17 20 25 29 23 18 19 13 10 9 9 8 4 7 7 7 8 9 11 14 14 14
10 12 7 5 6 14 15 11 12 8 10 8 8 9 14 14 11 17 48 42 25 21 30 31 30 29 28 29 29 23 23 21 20 21 20 18 17 11 8 5 4 3 3 4 3 5 11 14 12 13 13 14 16 17
12 14 14 6 4 5 9 8 8 7 9 6 9 13 14 5 8 15 18 25 27 29 30 31 30 30 31 28 27 26 23 17 19 16 14 13 13 18 13 7 9 4 1 3 2 2 5 5 5 4 3 8 19 19
Wind_Direction_850mb
303 306 308 309 311 311 312 313 312 310 307 299 296 300 304 305 294 290 275 243 266 285 289 285 292 292 291 282 293 326 345 20 346 360 330 350 303 313 307 319 331 315 327 337 314 290 334 359 334 338 296 297 296 293
302 305 307 310 313 313 313 314 313 315 310 311 303 297 298 309 289 285 298 202 258 267 271 287 286 272 258 258 276 292 291 278 277 306 334 315 289 305 316 305 25 335 81 302 280 295 297 317 302 306 309 307 307 304
297 300 305 311 318 319 317 315 315 313 316 312 316 307 291 284 280 273 273 226 274 290 301 282 278 316 259 241 229 241 210 197 214 218 304 280 272 284 303 328 304 310 107 255 294 236 325 329 328 337 345 341 348 12
291 297 304 308 311 317 320 318 318 315 315 316 311 309 295 289 279 275 273 180 289 299 287 301 311 276 270 237 222 225 240 217 247 266 231 245 257 278 278 283 266 349 306 290 263 294 313 330 357 1 5 17 23 46
291 298 303 308 310 309 315 320 320 317 311 310 314 305 296 278 272 276 268 246 221 252 296 298 303 313 252 222 227 226 223 231 231 235 222 241 245 260 261 277 141 322 295 336 310 325 329 318 10 20 28 34 42 52
293 299 302 306 308 310 314 319 321 320 312 309 319 313 295 264 260 265 320 108 207 218 270 290 306 281 241 218 221 231 215 218 216 212 238 238 243 257 290 300 167 352 347 4 329 339 356 17 29 43 46 48 61 65
294 299 301 304 308 310 312 317 319 319 315 312 324 316 277 260 251 205 219 188 180 211 256 283 276 265 211 208 224 220 212 213 218 234 226 227 223 187 254 266 334 0 6 25 28 356 357 39 48 56 64 64 68 72
291 293 294 298 304 308 310 313 319 319 315 315 322 274 254 248 242 251 237 219 197 229 247 270 280 279 203 214 223 195 196 205 221 234 242 218 158 224 254 257 67 18 67 42 52 17 23 55 57 57 67 65 69 64
286 287 289 292 299 303 304 307 317 315 318 322 273 240 227 235 244 272 202 219 232 224 256 225 250 295 173 237 257 179 192 204 221 243 245 246 172 225 259 339 46 49 56 93 21 356 85 85 77 65 72 72 73 71
285 286 285 288 296 302 306 303 311 317 311 298 243 233 249 240 245 211 165 179 203 218 231 255 238 245 322 309 160 263 197 222 231 242 222 230 208 143 54 59 91 94 129 159 101 45 49 68 95 81 78 80 86 80
280 281 282 285 291 298 302 303 307 306 236 232 241 238 267 270 209 231 223 194 186 231 222 240 233 245 250 251 267 240 262 197 247 187 235 223 161 116 104 118 118 109 111 143 121 349 49 66 76 96 86 95 86 90
275 277 281 286 286 290 290 290 232 217 224 242 258 287 244 206 223 236 214 201 197 240 192 219 219 209 232 232 231 247 247 225 256 151 243 225 127 134 146 142 140 137 133 151 101 87 83 82 83 87 97 99 105 91
274 276 283 285 281 279 277 275 251 222 239 247 241 243 212 216 229 224 203 205 214 208 233 186 192 170 224 213 188 247 228 224 149 232 224 101 137 147 148 149 160 151 153 159 117 99 94 93 94 94 95 98 109 110
273 277 280 280 278 274 269 262 243 224 238 212 201 232 221 209 229 199 231 234 237 252 236 195 195 196 202 192 218 235 222 197 229 218 223 145 153 159 158 159 165 157 172 174 126 116 107 102 101 102 102 104 107 108
274 276 279 275 271 266 261 254 239 224 237 213 212 230 219 239 245 252 237 240 245 246 266 197 181 211 216 234 209 238 225 232 228 119 136 137 149 157 157 147 164 133 142 139 129 121 117 112 109 107 108 111 111 111
277 278 272 272 270 266 261 249 231 216 230 216 222 259 259 243 238 242 246 225 240 253 204 209 205 258 208 202 230 226 257 322 87 111 126 138 147 157 156 153 163 146 148 137 132 129 124 121 119 118 116 115 116 117
277 272 273 276 274 251 245 231 214 201 218 234 214 230 250 268 270 266 233 238 227 230 203 186 213 215 240 241 232 292 309 112 113 126 140 144 155 158 156 155 162 169 155 138 138 133 127 128 128 125 123 122 120 118
270 274 275 270 277 266 248 211 195 200 221 227 233 238 252 260 251 269 238 252 250 199 210 207 282 227 248 269 28 311 98 105 118 133 135 135 135 147 152 154 166 160 143 144 141 137 136 136 133 133 131 132 131 127
271 267 273 269 232 168 156 164 180 226 225 232 234 233 246 264 238 251 261 234 225 178 71 227 230 245 250 9 140 148 124 133 132 138 135 137 143 141 148 151 151 148 148 145 142 141 144 141 142 141 142 143 143 141
253 227 229 217 160 189 182 174 190 249 241 217 223 221 222 243 248 242 238 215 179 206 230 229 253 8 298 159 186 154 136 135 142 142 142 140 142 136 141 149 152 149 145 149 146 145 144 143 144 147 149 146 145 146
171 179 164 173 205 262 215 188 190 219 227 223 205 203 217 227 247 247 194 172 175 219 231 236 333 345 308 122 126 150 149 140 152 163 158 145 144 135 137 146 155 155 157 158 156 159 162 152 152 153 145 147 141 144
175 163 166 174 279 253 247 215 220 213 249 235 196 188 236 212 235 219 217 205 212 223 245 304 258 166 135 104 126 148 157 142 143 154 162 154 151 146 146 154 161 171 173 169 163 164 160 158 157 157 155 149 149 145
135 148 167 209 258 245 269 193 212 203 237 207 191 180 237 178 196 191 194 220 216 222 211 203 123 153 139 140 131 145 149 147 147 151 164 172 173 170 171 177 177 172 168 163 162 161 159 164 163 161 162 158 161 165
142 146 228 232 230 263 237 242 233 247 176 237 183 214 139 154 193 200 199 206 200 205 190 169 166 164 146 164 160 156 155 150 148 152 172 176 173 186 178 179 191 181 163 162 158 159 160 165 169 168 169 170 171 164
186 231 205 246 245 245 216 213 205 194 215 202 194 207 188 170 167 192 219 215 159 192 189 158 192 171 153 145 136 142 142 155 151 150 158 152 164 174 172 176 179 199 184 156 165 170 167 174 168 172 175 177 178 178
217 213 194 209 226 227 237 205 209 218 193 172 173 244 129 147 196 219 182 166 180 176 172 176 154 141 158 150 146 156 136 159 147 147 142 152 149 161 169 172 173 178 185 199 199 192 189 186 179 183 183 182 180 180
248 221 204 224 233 214 244 254 240 212 187 165 146 151 187 206 138 81 98 133 159 171 172 158 149 158 147 146 125 141 137 125 133 148 147 137 118 126 138 178 201 182 190 194 199 201 199 194 196 193 196 190 193 200
268 280 245 229 231 242 265 260 218 283 60 74 115 107 50 12 70 42 131 167 177 140 139 145 147 143 135 135 131 124 130 132 134 126 116 121 119 113 99 109 130 135 155 168 175 178 183 192 198 198 208 218 217 228
254 268 245 243 218 234 217 220 345 65 34 64 134 103 80 53 22 0 150 142 146 141 142 131 135 135 132 129 131 133 136 144 139 143 152 140 141 141 126 104 118 134 122 143 144 136 147 166 177 183 192 194 211 222
195 189 234 244 234 207 43 80 80 64 58 65 94 99 71 65 44 102 141 137 136 136 133 132 143 143 139 136 124 116 119 117 135 147 155 148 133 137 146 127 117 126 141 135 132 129 128 129 156 184 229 217 217 224
149 169 249 259 0 21 104 94 84 66 56 59 62 103 95 92 81 105 127 128 127 123 129 165 156 141 140 140 135 138 128 101 147 104 115 120 116 117 99 126 123 109 124 125 147 182 185 201 224 240 236 230 219 231
201 200 271 331 79 134 115 95 85 63 38 67 51 89 90 83 67 118 137 137 144 148 153 142 136 120 118 121 133 132 133 128 117 117 113 118 109 108 113 141 166 119 151 186 214 232 240 242 253 254 244 271 261 257
170 211 262 273 268 153 152 157 104 77 31 81 51 71 78 86 118 160 171 182 160 135 135 130 128 126 127 130 133 134 154 149 145 146 155 156 157 148 125 120 125 121 3 262 258 254 265 321 317 308 309 278 257 246